Location: Unspecified
(0.0000°N, 0.0000°E)
Time: 10:15:10
(UTC+00:00)

N. Korean satellite - Visible Passes

Search period start: 27 September 2021 00:00
Search period end: 07 October 2021 00:00
Orbit: 449 x 498 km, 97.3° (Epoch: 26 September)

Date Brightness Start Highest point End Pass type
(mag) Time Alt. Az. Time Alt. Az. Time Alt. Az.
27 Sep 9.0 04:22:51 10° NE 04:25:52 25° ESE 04:28:54 10° SSE visible
29 Sep 6.5 04:59:43 10° N 05:03:20 71° W 05:07:00 10° SSW visible
30 Sep 8.3 04:32:14 10° NNE 04:35:35 35° E 04:38:58 10° SSE visible
01 Oct 10.0 04:06:06 10° ENE 04:07:50 13° ESE 04:09:35 10° SE visible
02 Oct 6.8 05:09:30 10° N 05:13:00 47° W 05:16:33 10° SSW visible
03 Oct 7.4 04:41:39 10° NNE 04:45:13 53° E 04:48:48 10° S visible
04 Oct 9.5 04:14:50 10° NE 04:17:25 18° E 04:20:01 10° SSE visible
05 Oct 7.3 05:19:17 10° NNW 05:22:34 32° W 05:25:51 10° SW visible
06 Oct 6.7 04:51:06 10° NNE 04:54:44 81° E 04:58:24 10° S visible
